[[{"header":{"parameterUnit":"m.s-1","parameterCategory":1,"la1":30.2991,"la2":30.254,"lo1":-89.0895,"lo2":-89.0444,"dy":0.0017,"dx":0.0017,"nx":28,"ny":28,"refTime":"2024-06-15T21:00:00:Z","depth":0,"parameterNumber":2,"parameterNumberName":"U-component_of_WINDS"},"data":[0,0,0,0,0,0,0,0,0,0,0,0,0,0,0,0,0,0,0,0,0,0,0,0,0,0,0,0,0,0,0,0,0,0,0,0,0,0,0,0,0,0,0,0,0,0,0,0,0,0,0,0,0,0,0,0,0,0,-4.193,-4.1931,0,-4.1961,-4.1961,-4.1962,-4.1872,-4.1869,-4.1867,-4.1864,-4.1894,-4.1897,-4.19,0,0,0,0,0,0,0,0,0,0,0,0,0,-4.1792,-4.1795,-4.193,-4.1931,-4.1931,-4.1961,-4.1961,-4.1962,-4.1873,-4.1869,-4.1866,-4.1863,-4.1893,-4.1897,-4.1901,0,0,0,0,0,0,0,0,0,0,0,0,0,-4.1841,-4.1796,-4.193,-4.189,-4.1887,-4.1961,-4.1961,-4.1962,-4.1873,-4.1869,-4.1865,-4.1861,-4.1891,-4.1896,-4.1901,-4.2015,0,0,-4.1917,-4.1919,0,0,0,0,0,0,0,0,-4.1838,-4.1846,-4.1896,-4.1893,-4.189,-4.1909,-4.1924,-4.198,-4.1874,-4.1878,-4.1864,-4.1859,-4.1902,-4.1906,-4.1921,-4.2016,-4.2018,-4.1917,-4.192,-4.1922,-4.1924,0,0,0,0,0,0,0,-4.1835,-4.1844,-4.1942,-4.1896,-4.1893,-4.187,-4.1872,-4.1934,-4.1913,-4.1878,-4.1871,-4.1876,-4.1899,-4.1916,-4.1921,-4.2018,-4.1917,-4.1921,-4.1925,-4.1927,-4.2207,-4.2211,0,0,0,0,0,0,-4.1837,-4.1842,-4.1941,-4.1943,-4.1853,-4.1876,-4.1878,-4.1907,-4.1912,-4.1909,-4.188,-4.1872,-4.1909,-4.1915,-4.1921,-4.2053,-4.1922,-4.1927,-4.193,-4.2202,-4.2208,-4.2213,0,0,0,0,0,0,-4.1834,-4.1847,-4.194,-4.1891,-4.1901,-4.1883,-4.1915,-4.1909,-4.1926,-4.1914,-4.1909,-4.1901,-4.1906,-4.1914,-4.1992,-4.2053,-4.1929,-4.1934,-4.2197,-4.2204,-4.221,-4.2319,0,0,0,0,0,0,-4.1831,-4.1846,-4.189,-4.1892,-4.1904,-4.2011,-4.1919,-4.1913,-4.1935,-4.1925,-4.1932,-4.1929,-4.1904,-4.1985,-4.1997,-4.2058,-4.1938,-4.2192,-4.22,-4.2208,-4.231,-4.2328,-4.2344,0,0,0,0,0,-4.1826,-4.1919,-4.1892,-4.1905,-4.1958,-4.2015,-4.2021,-4.1991,-4.194,-4.1983,-4.1975,-4.1929,-4.2045,-4.1994,-4.2007,-4.207,-4.2188,-4.2198,-4.2207,-4.2302,-4.2325,-4.2344,0,0,0,0,0,0,-4.1923,-4.1919,-4.1889,-4.1986,-4.2002,-4.2,-4.2053,-4.2016,-4.2046,-4.2035,-4.1996,-4.1998,-4.2083,-4.2084,-4.2027,-4.2179,-4.2107,-4.212,-4.2175,-4.2196,-4.2213,-4.221,-4.1942,0,0,0,0,0,-4.1956,-4.2003,-4.1996,-4.2082,-4.2092,-4.2072,-4.2095,-4.207,-4.2085,-4.2091,-4.2088,-4.2104,-4.2143,-4.217,-4.2206,-4.231,-4.2309,-4.236,-4.2377,-4.2391,-4.2402,-4.2456,-4.2478,-4.2245,-4.2245,-4.2245,0,0,-4.2024,-4.2027,-4.2059,-4.2102,-4.2111,-4.216,-4.2078,-4.2133,-4.2168,-4.2099,-4.2172,-4.2171,-4.2185,-4.2276,-4.2316,-4.228,-4.2467,-4.2404,-4.2416,-4.2419,-4.2468,-4.249,-4.251,-4.2252,-4.2251,-4.225,0,0,-4.2172,-4.218,-4.2252,-4.2263,-4.2278,-4.2264,-4.2282,-4.2286,-4.2282,-4.2355,-4.2304,-4.2345,-4.2415,-4.2427,-4.2442,-4.2596,-4.2553,-4.2609,-4.2698,-4.2751,-4.2769,-4.2785,-4.2838,-4.2857,-4.262,-4.262,-4.262,0,-4.2254,-4.2326,-4.2293,-4.2352,-4.2372,-4.2312,-4.2384,-4.2396,-4.2422,-4.2437,-4.2396,-4.2482,-4.2487,-4.258,-4.2617,-4.2632,-4.2649,-4.2606,-4.2769,-4.2785,-4.2799,-4.2849,-4.2869,-4.2627,-4.2626,-4.2625,-4.2625,0,-4.2425,-4.2476,-4.2532,-4.2559,-4.2586,-4.2651,-4.2627,-4.2657,-4.2631,-4.2621,-4.2695,-4.27,-4.2735,-4.2756,-4.273,-4.2844,-4.2821,-4.2776,-4.2703,-4.2828,-4.2874,-4.2894,-4.2636,-4.2634,-4.2632,-4.263,0,0,-4.2634,-4.2642,-4.2663,-4.2674,-4.2687,-4.2725,-4.2788,-4.2823,-4.2849,-4.2869,-4.2919,-4.298,-4.2938,-4.2955,-4.2931,-4.2977,-4.3096,-4.2926,-4.2925,-4.2955,-4.322,-4.3253,-4.3275,-4.3069,-4.3073,-4.3076,-4.3218,0,-4.2778,-4.2885,-4.2857,-4.2963,-4.3009,-4.2953,-4.3007,-4.302,-4.3013,-4.305,-4.3041,-4.3084,-4.3027,-4.3036,-4.308,-4.3072,-4.3148,-4.3062,-4.3114,-4.3116,-4.311,-4.33,-4.3334,-4.3469,-4.3236,-4.3239,-4.3241,0,-4.2961,-4.2988,-4.3099,-4.3103,-4.3121,-4.3171,-4.32,-4.3237,-4.325,-4.3241,-4.3261,-4.3227,-4.3288,-4.3216,-4.3298,-4.324,-4.3259,-4.3259,-4.3263,-4.3265,-4.3185,-4.3305,-4.3511,-4.353,-4.327,-4.3268,-4.3266,0,-4.31,-4.3165,-4.3238,-4.325,-4.3258,-4.3293,-4.3298,-4.3307,-4.333,-4.3356,-4.337,-4.3403,-4.342,-4.3446,-4.3421,-4.3371,-4.3506,-4.3433,-4.3499,-4.35,-4.3528,-4.3526,-4.3738,-4.3545,-4.3545,-4.3544,-4.3544,0,-4.3262,-4.3332,-4.3301,-4.3346,-4.3422,-4.3389,-4.3465,-4.3463,-4.3473,-4.3516,-4.347,-4.3512,-4.3478,-4.3516,-4.3498,-4.3567,-4.3576,-4.3569,-4.3563,-4.3572,-4.3573,-4.3583,-4.3572,-4.355,-4.3548,-4.3547,-4.3547,0,-4.3429,-4.3412,-4.3488,-4.3489,-4.3491,-4.3547,-4.3547,-4.3589,-4.3578,-4.3634,-4.3645,-4.3628,-4.3671,-4.365,-4.3694,-4.3682,-4.3771,-4.3753,-4.3766,-4.3761,-4.3828,-4.3821,-4.4052,-4.408,-4.3871,-4.3873,-4.3875,0,-4.3533,-4.3585,-4.3592,-4.3618,-4.3626,-4.3669,-4.3691,-4.3662,-4.3687,-4.3707,-4.3746,-4.3785,-4.3814,-4.3885,-4.3876,-4.391,-4.3891,-4.397,-4.3896,-4.3903,-4.389,-4.3887,-4.3891,-4.3984,-4.3987,-4.3989,-4.399,0,-4.372,-4.3708,-4.3743,-4.3775,-4.3804,-4.3828,-4.3847,-4.3871,-4.3842,-4.3873,-4.3916,-4.3939,-4.3985,-4.4023,-4.4052,-4.4056,-4.4018,-4.4014,-4.4031,-4.404,-4.4044,-4.4041,-4.3805,-4.4008,-4.4007,-4.4005,-4.4004,-4.4004,-4.3857,-4.39,-4.3911,-4.3951,-4.3963,-4.3983,-4.4021,-4.4016,-4.4052,-4.4086,-4.4067,-4.4117,-4.4129,-4.4164,-4.4173,-4.4212,-4.418,-4.4205,-4.4211,-4.4217,-4.4225,-4.404,-4.4217,-4.4217,-4.4216,-4.4216,-4.4215,0,-4.4039,-4.4043,-4.4081,-4.411,-4.4141,-4.4104,-4.4124,-4.4152,-4.4198,-4.4212,-4.4242,-4.4291,-4.4329,-4.4324,-4.4357,-4.4389,-4.4372,-4.4399,-4.4395,-4.4396,-4.4252,-4.4233,-4.4412,-4.4411,-4.4411,-4.4411,-4.4411,-4.4411,-4.4137,-4.4207,-4.4198,-4.4273,-4.4277,-4.4326,-4.4341,-4.4358,-4.4369,-4.4426,-4.4457,-4.4454,-4.446,-4.4494,-4.4526,-4.4524,-4.4537,-4.457,-4.4561,-4.4426,-4.4406,-4.4388,-4.437,-4.4574,-4.4574,-4.4701,-4.4702,-4.4703]},{"header":{"parameterUnit":"m.s-1","parameterCategory":1,"la1":30.2991,"la2":30.254,"lo1":-89.0895,"lo2":-89.0444,"dy":0.0017,"dx":0.0017,"nx":28,"ny":28,"refTime":"2024-06-15T21:00:00:Z","depth":0,"parameterNumber":3,"parameterNumberName":"V-component_of_WINDS"},"data":[0,0,0,0,0,0,0,0,0,0,0,0,0,0,0,0,0,0,0,0,0,0,0,0,0,0,0,0,0,0,0,0,0,0,0,0,0,0,0,0,0,0,0,0,0,0,0,0,0,0,0,0,0,0,0,0,0,0,3.7054,3.7054,0,3.7049,3.7048,3.7048,3.6959,3.6956,3.6954,3.6952,3.6946,3.6948,3.6949,0,0,0,0,0,0,0,0,0,0,0,0,0,3.6988,3.699,3.7054,3.7054,3.7054,3.7049,3.7048,3.7048,3.6959,3.6956,3.6954,3.6951,3.6945,3.6947,3.695,0,0,0,0,0,0,0,0,0,0,0,0,0,3.7003,3.699,3.7054,3.7009,3.7005,3.7049,3.7048,3.7048,3.696,3.6956,3.6953,3.695,3.6944,3.6947,3.695,3.7036,0,0,3.6959,3.696,0,0,0,0,0,0,0,0,3.7002,3.7006,3.7016,3.7012,3.7008,3.7001,3.7023,3.7044,3.6961,3.6977,3.6952,3.6948,3.6967,3.6968,3.6974,3.7036,3.7036,3.6959,3.6961,3.6962,3.6963,0,0,0,0,0,0,0,3.7001,3.7005,3.7052,3.7016,3.7011,3.6989,3.6987,3.7026,3.6991,3.6975,3.6969,3.6969,3.6964,3.6971,3.6973,3.7036,3.6959,3.6962,3.6963,3.6965,3.7168,3.7171,0,0,0,0,0,0,3.7007,3.7005,3.7052,3.7052,3.6997,3.6993,3.6991,3.7007,3.699,3.6985,3.6972,3.6965,3.6968,3.697,3.6973,3.7071,3.6962,3.6965,3.6967,3.7164,3.7168,3.7172,0,0,0,0,0,0,3.7006,3.7012,3.7052,3.7027,3.703,3.6998,3.7016,3.7008,3.7015,3.6988,3.6981,3.6986,3.6965,3.6968,3.7021,3.707,3.6966,3.6969,3.716,3.7165,3.717,3.7271,0,0,0,0,0,0,3.7004,3.7012,3.7044,3.7028,3.7032,3.7101,3.7019,3.7011,3.7021,3.7012,3.7,3.6994,3.6963,3.7017,3.7024,3.7072,3.6971,3.7155,3.7162,3.7169,3.7263,3.7279,3.7293,0,0,0,0,0,3.7002,3.7073,3.7047,3.7053,3.7072,3.7104,3.7106,3.7069,3.7025,3.7057,3.704,3.6995,3.7064,3.7023,3.703,3.708,3.7152,3.716,3.7168,3.7256,3.7276,3.7292,0,0,0,0,0,0,3.7095,3.707,3.704,3.7108,3.7109,3.7089,3.7128,3.7091,3.7104,3.7095,3.7048,3.7046,3.7106,3.7098,3.7053,3.7162,3.71,3.711,3.7165,3.7183,3.7198,3.7197,3.6974,0,0,0,0,0,3.7124,3.7153,3.7129,3.7191,3.7193,3.7161,3.7174,3.7145,3.7144,3.7144,3.713,3.7131,3.7152,3.7168,3.7186,3.7262,3.7258,3.73,3.7315,3.7327,3.7336,3.7374,3.7392,3.7199,3.7199,3.7199,0,0,3.7183,3.7173,3.7194,3.721,3.7207,3.7237,3.7162,3.7197,3.7219,3.7149,3.7197,3.7188,3.7185,3.725,3.7277,3.7245,3.7389,3.7338,3.7348,3.7349,3.7385,3.7403,3.7419,3.7205,3.7204,3.7203,0,0,3.7306,3.7302,3.7352,3.7351,3.7348,3.7327,3.7339,3.7325,3.7316,3.7364,3.7312,3.7338,3.7376,3.7376,3.7382,3.7506,3.7464,3.7514,3.759,3.7629,3.7644,3.7657,3.77,3.7716,3.7523,3.7523,3.7523,0,3.7379,3.7422,3.7383,3.7421,3.743,3.7369,3.7419,3.7421,3.7424,3.7431,3.7396,3.7443,3.7437,3.75,3.753,3.7537,3.7549,3.7513,3.7645,3.7658,3.767,3.771,3.7726,3.7529,3.7528,3.7527,3.7527,0,3.7512,3.7543,3.7585,3.759,3.7603,3.7648,3.7614,3.7633,3.7604,3.7586,3.7635,3.7627,3.7642,3.7655,3.7627,3.7715,3.7695,3.7653,3.7589,3.7695,3.7731,3.7747,3.7537,3.7535,3.7533,3.7532,0,0,3.7691,3.7674,3.769,3.7691,3.7684,3.7707,3.775,3.7765,3.7781,3.7786,3.7819,3.7854,3.7815,3.7822,3.7793,3.7827,3.7924,3.7781,3.778,3.7806,3.8019,3.8048,3.8067,3.7898,3.7901,3.7903,3.8018,0,3.7808,3.7878,3.7844,3.7918,3.7946,3.7889,3.7926,3.7926,3.7911,3.7932,3.7915,3.794,3.7888,3.7891,3.7923,3.7906,3.7966,3.7898,3.7927,3.7929,3.7927,3.8086,3.8118,3.8227,3.8032,3.8035,3.8037,0,3.7952,3.7963,3.8041,3.8028,3.8039,3.8072,3.8083,3.8105,3.8103,3.809,3.8098,3.8062,3.8102,3.8041,3.8095,3.8049,3.806,3.8053,3.8057,3.8056,3.7987,3.8088,3.8261,3.8276,3.8059,3.8057,3.8056,0,3.8073,3.8107,3.8157,3.8161,3.8148,3.8173,3.8169,3.8164,3.8175,3.8186,3.8192,3.8208,3.8215,3.8228,3.8197,3.8155,3.8255,3.8191,3.8244,3.8245,3.8265,3.8264,3.844,3.8277,3.8276,3.8276,3.8276,0,3.8205,3.8254,3.8211,3.8242,3.8295,3.8256,3.831,3.83,3.8296,3.8324,3.8277,3.8304,3.8262,3.8285,3.8261,3.8309,3.8314,3.8303,3.8296,3.8306,3.8307,3.8311,3.8302,3.828,3.8279,3.8279,3.8278,0,3.8347,3.8321,3.8372,3.8356,3.8353,3.8393,3.8379,3.8407,3.839,3.8425,3.8431,3.8404,3.8428,3.8399,3.8421,3.8405,3.847,3.8452,3.847,3.8464,3.8518,3.8513,3.8701,3.8723,3.8547,3.8549,3.855,0,3.8432,3.8469,3.8457,3.8472,3.8471,3.8496,3.8507,3.8471,3.8485,3.8487,3.8514,3.8535,3.8549,3.8591,3.8573,3.8589,3.8571,3.8636,3.8573,3.8582,3.8569,3.8567,3.857,3.8647,3.865,3.8651,3.8653,0,3.8585,3.8571,3.8589,3.8603,3.8618,3.8628,3.8634,3.8649,3.8611,3.8629,3.8653,3.8665,3.8687,3.8708,3.872,3.8715,3.8678,3.8673,3.8686,3.8695,3.8703,3.8698,3.8503,3.8668,3.8667,3.8666,3.8665,3.8664,3.87,3.8729,3.8726,3.8748,3.8749,3.8755,3.878,3.8766,3.8786,3.8801,3.8779,3.881,3.8808,3.882,3.882,3.8843,3.8815,3.8834,3.8838,3.8843,3.885,3.8702,3.8845,3.8845,3.8844,3.8844,3.8844,0,3.8849,3.8844,3.8865,3.8875,3.8892,3.8856,3.8861,3.8878,3.8905,3.8907,3.8922,3.895,3.897,3.8954,3.8971,3.8993,3.8976,3.8998,3.8995,3.8994,3.8875,3.8861,3.9011,3.9011,3.9011,3.9011,3.9011,3.9011,3.8928,3.8976,3.8961,3.9008,3.9003,3.9032,3.9038,3.9044,3.9044,3.9078,3.9095,3.9084,3.9079,3.9095,3.9112,3.9107,3.9114,3.9142,3.9131,3.9019,3.9003,3.8987,3.8974,3.9145,3.9145,3.9248,3.9249,3.9249]}]]